Regional Weather Roundup
Issued by NWS

Home | Current Version | Previous Version | Text Only | Print | Product List | Glossary On
Versions: 1 2 3 4 5 6 7 8 9 10 11 12 13 14 15 16 17 18 19 20 21 22 23 24 25 26 27 28 29 30 31 32 33 34 35 36 37 38 39 40 41 42 43 44 45 46 47 48 49 50
000
ASUS43 KIND 011159
RWRIN

WEATHER ROUNDUP FOR INDIANA
NATIONAL WEATHER SERVICE INDIANAPOLIS IN
800 AM EDT MON SEP 01 2014

NOTE: "FAIR" INDICATES FEW OR NO CLOUDS BELOW 12,000 FEET WITH NO
SIGNIFICANT WEATHER AND/OR OBSTRUCTIONS TO VISIBILITY.

* - STATION DOES NOT REPORT WEATHER SUCH AS PRECIPITATION OR FOG.

+ - STATION NOT QUALITY CONTROLLED BY THE NATIONAL WEATHER SERVICE.
    USE DATA WITH CAUTION...ESPECIALLY DEWPOINT AND RELATIVE
    HUMIDITY OBSERVATIONS.

INZ001>003-010>013-019-020-011300-
NORTHWEST INDIANA

CITY           SKY/WX    TMP DP  RH WIND       PRES   REMARKS
GARY /AIRPORT/ CLOUDY    75  72  88 S8        29.82S
KNOX *+        CLOUDY    72  68  89 S10G17    29.85S
MONTICELLO +   CLOUDY    72  71  97 S10       29.87F
VALPARAISO     CLOUDY    72  70  93 S10       29.85R
6HR MIN TEMP:  70; 6HR MAX TEMP:  73;


$$

LMZ046-743>745-011300-
SOUTHERN LAKE MICHIGAN

STATION/POSITION TIME  TEMP WIND        PRES
                       AIR  DIR/SP/G
                 (UTC) (F)  (DEG/KT/KT) (MB)
MICHIGAN CITY    1100   72  150/ 12/ 18   N/A

$$

INZ004-005-014>016-021>024-011300-
NORTH CENTRAL INDIANA

CITY           SKY/WX    TMP DP  RH WIND       PRES   REMARKS
GOSHEN         CLOUDY    73  69  87 S10       29.87F FOG
6HR MIN TEMP:  72; 6HR MAX TEMP:  73;

SOUTH BEND     CLOUDY    73  70  90 S13       29.85F
6HR MIN TEMP:  72; 6HR MAX TEMP:  73;


$$

INZ006>009-017-018-025>027-011300-
NORTHEAST INDIANA

CITY           SKY/WX    TMP DP  RH WIND       PRES   REMARKS
ANGOLA *+      CLOUDY    72  63  73 S6        29.91S
FORT WAYNE     CLOUDY    71  70  96 S9        29.93S FOG
6HR MIN TEMP:  69; 6HR MAX TEMP:  71; 6HR PCP:  0.02;


$$

INZ028-029-035-036-043>045-051>053-011300-
WEST CENTRAL INDIANA

CITY           SKY/WX    TMP DP  RH WIND       PRES   REMARKS
GREENCASTLE +  CLOUDY    72  70  94 S6        29.95R FOG
LAFAYETTE      PTCLDY    72  70  93 S7        29.89S
6HR MIN TEMP:  71; 6HR MAX TEMP:  72;

TERRE HAUTE    CLOUDY    74  71  91 S13G21    29.93R
6HR MIN TEMP:  72; 6HR MAX TEMP:  75;


$$

INZ030>032-037>040-046>048-054>057-064-065-011300-
CENTRAL INDIANA

CITY           SKY/WX    TMP DP  RH WIND       PRES   REMARKS
FRANKFORT +    CLEAR    N/A N/A N/A S7        29.93S HAZE
INDIANAPOLIS   PTCLDY    73  71  93 S10       29.94S
6HR MIN TEMP:  71; 6HR MAX TEMP:  73;

-EAGLE CREEK   CLOUDY    73  70  90 SW7       29.95R
6HR MIN TEMP:  71; 6HR MAX TEMP:  73; 6HR PCP:  0.01;

KOKOMO *+      CLOUDY    72  70  94 S13       29.92S
MT COMFORT *+  MOCLDY    73 N/A N/A SW9       29.96S
SHELBYVILLE    CLOUDY    74  72  93 S10       29.96S FOG
6HR MIN TEMP:  72; 6HR MAX TEMP:  74;


$$

INZ033-034-041-042-049-050-058-059-011300-
EAST CENTRAL INDIANA

CITY           SKY/WX    TMP DP  RH WIND       PRES   REMARKS
MUNCIE         CLOUDY    73  70  90 SW7       29.95S FOG
6HR MIN TEMP:  71; 6HR MAX TEMP:  73; 6HR PCP: TRACE;


$$

INZ060-061-067>069-081>083-085>088-011300-
SOUTHWEST INDIANA

CITY           SKY/WX    TMP DP  RH WIND       PRES   REMARKS
EVANSVILLE     MOCLDY    76  72  87 SW10      29.98S
6HR MIN TEMP:  74; 6HR MAX TEMP:  76;


$$

INZ062-063-066-070>080-084-089>092-011300-
SOUTH CENTRAL AND SOUTHEAST INDIANA

CITY           SKY/WX    TMP DP  RH WIND       PRES   REMARKS
BLOOMINGTON    CLOUDY    74  71  91 SW9       29.98R
6HR MIN TEMP:  72; 6HR MAX TEMP:  74; 6HR PCP:  0.02;


$$



USA.gov is the U.S. government's official web portal to all federal, state and local government web resources and services.